Find Starlink 34030

NORAD ID: 64030 Int'l Des: 2025-102 Owner: SPXS Country: US Constellation: starlink operational
LEOCIRCULAR

Current View

Loading 3D Globe...

About Starlink 34030

Description loading...

Upcoming Passes

Passes for default location (London). Set your location on the main map for personalized predictions.

Altitude History

Loading altitude history...

Two-Line Element Set

1 64030U 25102J 26149.50395920 .00002950 00000-0 25488-3 0 9994
2 64030 70.0024 270.8428 0002865 257.4706 102.6133 14.98339520 58060
Epoch: May 29, 2026 • Age: 12 hours

Current Status

Altitude 579.9 km
Velocity 7.57 km/s
Sub-Earth Point -26.05°S, 151.29°W
Launch Date May 16, 2025
Age 1 years
Type internet

Technical Details

Classification Payload
Mass 575.00 kg
Dry Mass 530.00 kg
Total Mass 575.00 kg
Length 0.30 m
Diameter 4.10 m
Span 29.00 m
Shape Box + pan
Manufacturer SPXS
Bus Type Starlink V2MO
Phase Status In Orbit
Owner/State SPXS/US

Most Searched